This demonstration page uses our WeatherBlox Daily Observations layout. Learn more.

Left ArrowRight Arrow

Hourly Observations for March 25, 2018

Temp ( °F °C ) Dew Point ( °F °C ) Humidity (%) Winds ( mph kmh ) Pressure ( in mb ) Visibility ( mi km ) Precip ( " mm )
12:59 am 00:59 Cloudy 42 5.6 31 -0.6 65 65 SW 5 7 30.16 1021 10 16 0.00 0.00
1:59 am 01:59 Cloudy 43 6.1 32 0 65 65 WNW 5 7 30.14 1021 10 16 0.00 0.00
2:59 am 02:59 Cloudy 42 5.6 33 0.6 71 71 WNW 6 9 30.13 1020 10 16 0.00 0.00
3:59 am 03:59 Cloudy 42 5.6 33 0.6 71 71 WNW 5 7 30.13 1020 10 16 0.00 0.00
4:59 am 04:59 Cloudy 42 5.6 32 0 68 68 N 5 7 30.12 1020 10 16 0.00 0.00
5:59 am 05:59 Cloudy 42 5.6 32 0 68 68 N 8 13 30.13 1020 10 16 0.00 0.00
6:59 am 06:59 Cloudy 42 5.6 33 0.6 71 71 N 9 15 30.13 1020 10 16 0.00 0.00
7:59 am 07:59 Mostly Cloudy 43 6.1 34 1.1 71 71 NE 8 13 30.16 1021 10 16 0.00 0.00
8:59 am 08:59 Mostly Cloudy 45 7.2 36 2.2 71 71 NE 10 17 30.19 1022 10 16 0.00 0.00
9:59 am 09:59 Mostly Cloudy 46 7.8 35 1.7 66 66 ENE 13 20 30.21 1023 10 16 0.00 0.00
10:59 am 10:59 Mostly Cloudy 48 8.9 31 -0.6 52 52 ENE 14 22 30.25 1024 10 16 0.00 0.00
11:59 am 11:59 Partly Cloudy 49 9.4 31 -0.6 50 50 NE 14 22 30.26 1025 10 16 0.00 0.00
12:59 pm 12:59 Mostly Sunny 47 8.3 34 1.1 61 61 NNE 18 30 30.28 1025 10 16 0.00 0.00
1:59 pm 13:59 Mostly Sunny 47 8.3 33 0.6 59 59 N 15 24 30.29 1026 10 16 0.00 0.00
2:59 pm 14:59 Mostly Sunny 47 8.3 33 0.6 59 59 N 20 31 30.30 1026 10 16 0.00 0.00
3:59 pm 15:59 Mostly Sunny 48 8.9 32 0 54 54 N 21 33 30.32 1027 10 16 0.00 0.00
4:59 pm 16:59 Mostly Sunny 48 8.9 32 0 54 54 NNE 23 37 30.34 1028 10 16 0.00 0.00
5:59 pm 17:59 Mostly Cloudy 45 7.2 36 2.2 71 71 NE 20 31 30.37 1029 9 14 0.00 0.03
6:59 pm 18:59 Mostly Cloudy 44 6.7 34 1.1 68 68 NE 21 33 30.39 1029 10 16 0.00 0.00
7:34 pm 19:34 Mostly Cloudy 43 6.1 33 0.6 68 68 NE 20 31 30.42 1030 10 16 0.00 0.00
7:59 pm 19:59 Mostly Cloudy 43 6.1 34 1.1 71 71 NE 20 31 30.41 1030 10 16 0.00 0.00
8:59 pm 20:59 Mostly Cloudy 42 5.6 32 0 68 68 NE 20 31 30.45 1031 10 16 0.00 0.00
9:59 pm 21:59 Cloudy 42 5.6 29 -1.7 60 60 NE 24 39 30.48 1032 10 16 0.00 0.00
10:59 pm 22:59 Partly Cloudy 41 5 28 -2.2 60 60 NE 23 37 30.49 1032 10 16 0.00 0.00
11:59 pm 23:59 Mostly Cloudy 41 5 29 -1.7 62 62 NE 18 30 30.50 1033 10 16 0.00 0.00

Powered by AerisWeather